This demonstration page uses our WeatherBlox Daily Observations layout. Learn more.

38.89511, -77.03637

Hourly Observations for March 29, 2015

Temp ( °F °C ) Dew Point ( °F °C ) Humidity (%) Winds ( mph kmh ) Pressure ( in mb ) Visibility ( mi km ) Precip ( " mm )
12:52 am 00:52 Clear 30 -1 7 -14 37 37 NNW 16 26 30.27 1025 10 16.09344 0 0
1:52 am 01:52 Clear 30 -1 5 -15 34 34 NNW 14 22 30.3 1026 10 16.09344 0 0
2:52 am 02:52 Clear 30 -1 3 -16 31 31 NW 12 19 30.3 1026 10 16.09344 0 0
3:52 am 03:52 Clear 28 -2 5 -15 37 37 NW 14 22 30.3 1026 10 16.09344 0 0
4:52 am 04:52 Clear 28 -2 7 -14 40 40 NW 12 19 30.33 1027 10 16.09344 0 0
5:52 am 05:52 Clear 28 -2 7 -14 40 40 NW 9 15 30.33 1027 10 16.09344 0 0
6:52 am 06:52 Clear 28 -2 9 -13 43 43 NNW 13 20 30.36 1028 10 16.09344 0 0
7:52 am 07:52 Sunny 28 -2 9 -13 43 43 NW 13 20 30.39 1029 10 16.09344 0 0
8:52 am 08:52 Sunny 30 -1 10 -12 43 43 NNW 12 19 30.39 1029 10 16.09344 0 0
9:52 am 09:52 Sunny 34 1 10 -12 38 38 NNW 12 19 30.42 1030 10 16.09344 0 0
10:52 am 10:52 Sunny 37 3 9 -13 30 30 NNW 10 17 30.42 1030 10 16.09344 0 0
11:52 am 11:52 Sunny 37 3 10 -12 33 33 N 12 19 30.42 1030 10 16.09344 0 0
12:52 pm 12:52 Sunny 41 5 9 -13 26 26 N 3 6 30.39 1029 10 16.09344 0 0
1:52 pm 13:52 Mostly Sunny 43 6 10 -12 26 26 WSW 7 11 30.36 1028 10 16.09344 0 0
2:52 pm 14:52 Mostly Sunny 46 8 9 -13 21 21 NW 9 15 30.33 1027 10 16.09344 0 0
3:52 pm 15:52 Mostly Sunny 46 8 9 -13 21 21 Calm 30.3 1026 10 16.09344 0 0
4:52 pm 16:52 Mostly Sunny 48 9 7 -14 18 18 N 5 7 30.27 1025 10 16.09344 0 0
5:52 pm 17:52 Partly Cloudy 48 9 5 -15 17 17 WSW 8 13 30.24 1024 10 16.09344 0 0
6:52 pm 18:52 Partly Cloudy 46 8 7 -14 20 20 SSW 7 11 30.24 1024 10 16.09344 0 0
7:52 pm 19:52 Partly Cloudy 45 7 12 -11 27 27 S 9 15 30.21 1023 10 16.09344 0 0
8:52 pm 20:52 Partly Cloudy 45 7 12 -11 27 27 S 8 13 30.21 1023 10 16.09344 0 0
9:52 pm 21:52 Mostly Cloudy 43 6 16 -9 34 34 S 12 19 30.18 1022 10 16.09344 0 0
10:52 pm 22:52 Cloudy 43 6 18 -8 36 36 S 14 22 30.15 1021 10 16.09344 0 0
11:52 pm 23:52 Cloudy 43 6 19 -7 39 39 S 12 19 30.15 1021 10 16.09344 0 0

Powered by AerisWeather